Weather History for Minneapolis Crystal, MN

Change the Weather History Date:

Thursday, November 15, 2012

  Actual Average Record
Temperature  
Mean Temperature 39 °F -  
Max Temperature 51 °F 40 °F 62 °F (2001)
Min Temperature 26 °F 25 °F 15 °F (1992)
Degree Days  
Heating Degree Days 26    
Moisture  
Dew Point 26 °F    
Average Humidity 57    
Maximum Humidity 73    
Minimum Humidity 40    
Precipitation  
Precipitation 0.00 in - - ()
Sea Level Pressure  
Sea Level Pressure 30.27 in    
Wind  
Wind Speed 6 mph (WNW)    
Max Wind Speed 13 mph    
Max Gust Speed -    
Visibility 10 miles    
Events      
Averages and records for this station are not official NWS values.
T = Trace of Precipitation, MM = Missing Value Source: NWS Daily Summary

Daily Weather History Graph

Daily Weather History Graph

Search for Another Location

Airport:

Trip Planner

Search our weather history database for the weather conditions in past years. The results will help you decide how hot, cold, wet, or windy it might be!

Date:

Astronomy

Nov. 15, 2012 Rise Set
Actual Time 7:11 AM CST 4:43 PM CST
Civil Twilight 6:40 AM CST 5:15 PM CST
Nautical Twilight 6:04 AM CST 5:51 PM CST
Astronomical Twilight 5:29 AM CST 6:26 PM CST
Moon 9:11 AM CST (11/15) 6:32 PM CST (11/15)
Length of Visible Light 10h 35m
Length of Day
9h 31m
Waxing Crescent, 5% of the Moon is Illuminated
Nov 15
Waxing Crescent
Nov 20
First Quarter
Nov 28
Full
Dec 6
Last Quarter
Dec 13
New

Hourly Weather History & Observations

Time (CST) Temp. Windchill Dew Point Humidity Pressure Visibility Wind Dir Wind Speed Gust Speed Precip Events Conditions
12:53 AM 39.9 °F 36.7 °F 30.9 °F 70% 30.14 in 10.0 mi South 4.6 mph - N/A   Overcast
1:53 AM 41.0 °F 37.1 °F 32.0 °F 70% 30.13 in 10.0 mi SSE 5.8 mph - N/A   Overcast
2:53 AM 41.0 °F 37.1 °F 32.0 °F 70% 30.13 in 10.0 mi SSE 5.8 mph - N/A   Mostly Cloudy
3:53 AM 39.9 °F 37.8 °F 30.9 °F 70% 30.13 in 10.0 mi SSE 3.5 mph - N/A   Overcast
4:53 AM 39.0 °F 36.8 °F 30.9 °F 73% 30.13 in 10.0 mi SSE 3.5 mph - N/A   Overcast
5:53 AM 39.0 °F - 30.0 °F 70% 30.14 in 10.0 mi Calm Calm - N/A   Overcast
6:53 AM 37.9 °F 35.5 °F 28.9 °F 70% 30.16 in 10.0 mi SSW 3.5 mph - N/A   Scattered Clouds
7:53 AM 37.9 °F - 30.0 °F 73% 30.18 in 10.0 mi Calm Calm - N/A   Scattered Clouds
8:53 AM 41.0 °F 39.0 °F 30.9 °F 67% 30.20 in 10.0 mi West 3.5 mph - N/A   Clear
9:53 AM 45.0 °F 39.7 °F 30.9 °F 58% 30.22 in 10.0 mi WNW 10.4 mph - N/A   Clear
10:53 AM 46.9 °F - 32.0 °F 56% 30.25 in 10.0 mi NW 8.1 mph - N/A   Clear
11:53 AM 48.9 °F - 33.1 °F 54% 30.24 in 10.0 mi WNW 5.8 mph - N/A   Clear
12:53 PM 51.1 °F - 30.9 °F 46% 30.25 in 10.0 mi NW 10.4 mph - N/A   Clear
1:53 PM 50.0 °F - 30.0 °F 46% 30.26 in 10.0 mi NW 10.4 mph - N/A   Clear
2:53 PM 50.0 °F - 30.9 °F 48% 30.28 in 10.0 mi NW 11.5 mph - N/A   Clear
3:53 PM 46.9 °F - 27.0 °F 46% 30.32 in 10.0 mi NW 12.7 mph - N/A   Clear
4:53 PM 43.0 °F 36.4 °F 19.9 °F 40% 30.35 in 10.0 mi NNW 12.7 mph - N/A   Clear
5:53 PM 39.0 °F 32.8 °F 18.0 °F 43% 30.38 in 10.0 mi NNW 9.2 mph - N/A   Clear
6:53 PM 36.0 °F 29.6 °F 15.1 °F 43% 30.40 in 10.0 mi NNW 8.1 mph - N/A   Clear
7:53 PM 33.1 °F 26.9 °F 12.0 °F 42% 30.43 in 10.0 mi NNW 6.9 mph - N/A   Clear
9:53 PM 30.0 °F 25.2 °F 10.9 °F 45% 30.46 in 10.0 mi North 4.6 mph - N/A   Clear
10:53 PM 27.0 °F - 10.0 °F 49% 30.47 in 10.0 mi Calm Calm - N/A   Clear
11:53 PM 26.1 °F 20.5 °F 10.9 °F 53% 30.49 in 10.0 mi NNW 4.6 mph - N/A   Clear